Time,TemperatureF,DewpointF,PressureIn,WindDirection,WindDirectionDegrees,WindSpeedMPH,WindSpeedGustMPH,Humidity,HourlyPrecipIn,Conditions,Clouds,dailyrainin,SoftwareType,DateUTC
2013-07-18 00:02:00,77.0,74.0,-100.00,SW,220,4.0,5.0,90,-99.99,,,-99.99,,2013-07-18 04:02:00,
2013-07-18 01:32:00,75.0,73.0,-100.00,SW,215,4.0,6.0,92,-99.99,,,-99.99,,2013-07-18 05:32:00,
2013-07-18 02:32:00,74.0,72.0,-100.00,SSW,210,3.0,4.0,92,-99.99,,,-99.99,,2013-07-18 06:32:00,
2013-07-18 03:01:00,74.0,72.0,-100.00,SW,220,3.0,4.0,92,-99.99,,,-99.99,,2013-07-18 07:01:00,
2013-07-18 03:32:00,74.0,71.0,-100.00,SSW,210,4.0,4.0,92,-99.99,,,-99.99,,2013-07-18 07:32:00,
2013-07-18 04:01:00,73.0,71.0,-100.00,SSW,210,4.0,6.0,92,-99.99,,,-99.99,,2013-07-18 08:01:00,
2013-07-18 04:32:00,73.0,71.0,-100.00,SW,235,4.0,4.0,92,-99.99,,,-99.99,,2013-07-18 08:32:00,
2013-07-18 05:01:00,73.0,71.0,-100.00,SW,230,3.0,3.0,92,-99.99,,,-99.99,,2013-07-18 09:01:00,
2013-07-18 05:32:00,72.0,70.0,-100.00,SW,215,4.0,5.0,93,-99.99,,,-99.99,,2013-07-18 09:32:00,
2013-07-18 06:01:00,72.0,70.0,-100.00,WSW,255,4.0,6.0,93,-99.99,,,-99.99,,2013-07-18 10:01:00,
2013-07-18 07:32:00,72.0,71.0,-100.00,WSW,250,2.0,3.0,93,-99.99,,,-99.99,,2013-07-18 11:32:00,
2013-07-18 08:02:00,74.0,72.0,-100.00,West,260,2.0,2.0,93,-99.99,,,-99.99,,2013-07-18 12:02:00,
2013-07-18 08:32:00,81.0,76.0,-100.00,SW,230,3.0,4.0,84,-99.99,,,-99.99,,2013-07-18 12:32:00,
2013-07-18 09:01:00,79.0,76.0,-100.00,WSW,250,1.0,4.0,91,-99.99,,,-99.99,,2013-07-18 13:01:00,
2013-07-18 10:32:00,88.0,74.0,-100.00,SW,215,2.0,6.0,64,-99.99,,,-99.99,,2013-07-18 14:32:00,
2013-07-18 11:01:00,90.0,73.0,-100.00,SW,220,4.0,6.0,58,-99.99,,,-99.99,,2013-07-18 15:01:00,
2013-07-18 12:32:00,89.0,72.0,-100.00,SW,235,3.0,6.0,56,-99.99,,,-99.99,,2013-07-18 16:32:00,
2013-07-18 12:33:00,90.0,70.0,-100.00,WSW,245,6.0,7.0,51,-99.99,,,-99.99,,2013-07-18 16:33:00,
2013-07-18 13:02:00,90.0,71.0,-100.00,SW,235,4.0,9.0,53,-99.99,,,-99.99,,2013-07-18 17:02:00,
2013-07-18 14:02:00,91.0,71.0,-100.00,West,270,4.0,11.0,50,-99.99,,,-99.99,,2013-07-18 18:02:00,
2013-07-18 15:32:00,92.0,69.0,-100.00,SW,235,5.0,8.0,47,-99.99,,,-99.99,,2013-07-18 19:32:00,
2013-07-18 16:02:00,92.0,70.0,-100.00,WSW,240,4.0,9.0,49,-99.99,,,-99.99,,2013-07-18 20:02:00,
2013-07-18 17:01:00,92.0,69.0,-100.00,WNW,290,3.0,7.0,45,-99.99,,,-99.99,,2013-07-18 21:01:00,
2013-07-18 17:32:00,92.0,69.0,-100.00,SW,225,6.0,7.0,47,-99.99,,,-99.99,,2013-07-18 21:32:00,
2013-07-18 18:01:00,91.0,70.0,-100.00,SW,215,6.0,9.0,49,-99.99,,,-99.99,,2013-07-18 22:01:00,
2013-07-18 19:32:00,87.0,76.0,-100.00,WSW,250,5.0,6.0,70,-99.99,,,-99.99,,2013-07-18 23:32:00,
2013-07-18 20:01:00,88.0,74.0,-100.00,WSW,250,6.0,6.0,63,-99.99,,,-99.99,,2013-07-19 00:01:00,
2013-07-18 20:32:00,82.0,76.0,-100.00,SW,230,6.0,7.0,82,-99.99,,,-99.99,,2013-07-19 00:32:00,
2013-07-18 21:01:00,85.0,76.0,-100.00,WSW,240,6.0,6.0,74,-99.99,,,-99.99,,2013-07-19 01:01:00,
2013-07-18 22:32:00,79.0,75.0,-100.00,SW,215,6.0,7.0,88,-99.99,,,-99.99,,2013-07-19 02:32:00,
2013-07-18 23:01:00,79.0,75.0,-100.00,South,190,6.0,6.0,89,-99.99,,,-99.99,,2013-07-19 03:01:00,
2013-07-18 23:32:00,77.0,74.0,-100.00,SSW,195,7.0,7.0,89,-99.99,,,-99.99,,2013-07-19 03:32:00,